TimeEEST,TemperatureF,Dew PointF,Humidity,Sea Level PressureIn,VisibilityMPH,Wind Direction,Wind SpeedMPH,Gust SpeedMPH,PrecipitationIn,Events,Conditions,WindDirDegrees,DateUTC
5:50 AM,55.4,51.8,88,29.95,-9999.0,Calm,Calm,-,N/A,,Clear,0,2012-10-13 02:50:00
6:20 AM,55.4,51.8,88,29.95,-9999.0,ENE,4.6,-,N/A,,Clear,60,2012-10-13 03:20:00
7:20 AM,55.4,51.8,88,29.95,6.2,ENE,4.6,-,N/A,,Mostly Cloudy,70,2012-10-13 04:20:00
7:50 AM,59.0,51.8,77,29.95,6.2,ENE,4.6,-,N/A,,Mostly Cloudy,60,2012-10-13 04:50:00
8:20 AM,59.0,51.8,77,29.95,6.2,Calm,Calm,-,N/A,,Mostly Cloudy,0,2012-10-13 05:20:00
8:50 AM,60.8,55.4,82,29.95,6.2,Calm,Calm,-,N/A,,Mostly Cloudy,0,2012-10-13 05:50:00
9:20 AM,60.8,55.4,82,29.95,6.2,Calm,Calm,-,N/A,,Mostly Cloudy,0,2012-10-13 06:20:00
9:50 AM,62.6,55.4,77,29.95,6.2,Calm,Calm,-,N/A,,Mostly Cloudy,0,2012-10-13 06:50:00
10:20 AM,62.6,55.4,77,29.95,6.2,SSE,4.6,-,N/A,,Mostly Cloudy,150,2012-10-13 07:20:00
10:50 AM,68.0,55.4,64,29.95,6.2,Calm,Calm,-,N/A,,Mostly Cloudy,0,2012-10-13 07:50:00
11:20 AM,69.8,57.2,64,29.95,6.2,Calm,Calm,-,N/A,,Scattered Clouds,0,2012-10-13 08:20:00
11:50 AM,71.6,60.8,69,29.95,6.2,Calm,Calm,-,N/A,,Scattered Clouds,0,2012-10-13 08:50:00
12:20 PM,73.4,60.8,65,29.95,6.2,SE,6.9,-,N/A,,Scattered Clouds,130,2012-10-13 09:20:00
12:50 PM,75.2,62.6,65,29.95,6.2,SSE,5.8,-,N/A,,Partly Cloudy,160,2012-10-13 09:50:00
1:20 PM,75.2,62.6,65,29.95,6.2,SSE,5.8,-,N/A,,Partly Cloudy,160,2012-10-13 10:20:00
1:50 PM,77.0,64.4,65,29.92,6.2,SSE,8.1,-,N/A,,Partly Cloudy,160,2012-10-13 10:50:00
2:20 PM,77.0,64.4,65,29.92,6.2,SSE,9.2,-,N/A,,Partly Cloudy,160,2012-10-13 11:20:00
2:50 PM,77.0,64.4,65,29.92,6.2,SE,8.1,-,N/A,,Partly Cloudy,130,2012-10-13 11:50:00
3:20 PM,77.0,64.4,65,29.92,6.2,SE,8.1,-,N/A,,Partly Cloudy,140,2012-10-13 12:20:00
3:50 PM,77.0,64.4,65,29.92,6.2,South,6.9,-,N/A,,Partly Cloudy,170,2012-10-13 12:50:00
4:20 PM,77.0,64.4,65,29.92,6.2,SSE,4.6,-,N/A,,Partly Cloudy,160,2012-10-13 13:20:00
5:20 PM,77.0,64.4,65,29.92,6.2,SW,4.6,-,N/A,,Partly Cloudy,230,2012-10-13 14:20:00
5:50 PM,75.2,64.4,69,29.92,6.2,Calm,Calm,-,N/A,,Partly Cloudy,0,2012-10-13 14:50:00
6:20 PM,75.2,64.4,69,29.92,6.2,WSW,4.6,-,N/A,,Partly Cloudy,250,2012-10-13 15:20:00
6:50 PM,75.2,64.4,69,29.92,6.2,WSW,4.6,-,N/A,,Partly Cloudy,250,2012-10-13 15:50:00
7:20 PM,69.8,64.4,83,29.92,6.2,Calm,Calm,-,N/A,,Partly Cloudy,0,2012-10-13 16:20:00
7:50 PM,68.0,64.4,88,29.92,6.2,Calm,Calm,-,N/A,,Partly Cloudy,0,2012-10-13 16:50:00
8:20 PM,68.0,64.4,88,29.92,6.2,Calm,Calm,-,N/A,,Partly Cloudy,0,2012-10-13 17:20:00
8:50 PM,66.2,64.4,94,29.92,6.2,Calm,Calm,-,N/A,,Partly Cloudy,0,2012-10-13 17:50:00
9:20 PM,66.2,64.4,94,29.92,6.2,NNE,4.6,-,N/A,,Partly Cloudy,30,2012-10-13 18:20:00
9:50 PM,64.4,62.6,94,29.92,6.2,East,4.6,-,N/A,,Partly Cloudy,90,2012-10-13 18:50:00
10:20 PM,64.4,62.6,94,29.92,6.2,Calm,Calm,-,N/A,,Partly Cloudy,0,2012-10-13 19:20:00